Regional Weather Roundup
Issued by NWS Charleston, SC

Current Version | Previous Version | Graphics & Text | Print | Product List | Glossary On
Versions: 1 2 3 4 5 6 7 8 9 10 11 12 13 14 15 16 17 18 19 20 21 22 23 24 25 26 27 28 29 30 31 32 33 34 35 36 37 38 39 40 41 42 43 44 45 46 47 48 49 50
000 ASUS42 KCHS 210025 RWRCHS REGIONAL WEATHER ROUNDUP NATIONAL WEATHER SERVICE CHARLESTON SC 800 PM EDT SAT SEP 20 2014 NOTE: "FAIR" INDICATES FEW OR NO CLOUDS BELOW 12,000 FEET WITH NO SIGNIFICANT WEATHER AND/OR OBSTRUCTIONS TO VISIBILITY. NOT ALL STATIONS ARE QUALITY CONTROLLED BY THE NATIONAL WEATHER SERVICE. USE DATA WITH CAUTION...ESPECIALLY DEWPOINT OBSERVATIONS. SCZ027-030-031-034>040-042>050-210100- ...SOUTH CAROLINA... CITY SKY/WX TMP DP RH WIND PRES REMARKS N CHARLESTON CLOUDY 74 64 71 N10 29.93F 6HR MIN TEMP: 74; 6HR MAX TEMP: 75; 6HR PCP: TRACE; WATERFRONT PRK NOT AVBL FORT JOHNSON NOT AVBL MOUNT PLEASANT LGT RAIN 72 66 83 N8 29.93F JOHNS ISLAND CLEAR 73 73 100 N10 29.94R PINOPOLIS N/A 77 64 65 N16 29.88R MONCKS CORNER N/A 75 66 73 NE6 29.95S SUMMERVILLE FAIR 70 64 83 N3 29.96S BEAUFORT MCAS CLOUDY 73 66 78 SW10 29.94F 6HR MIN TEMP: 73; 6HR MAX TEMP: 75; BEAUFORT ARPT FAIR 73 66 78 N16 29.94S HILTON HEAD IS CLEAR 73 64 73 N9 29.95F GEORGETOWN NOT AVBL WALTERBORO CLOUDY 70 70 100 NW5 29.97R ORANGEBURG CLOUDY 72 62 71 NE6 29.98S 6HR MIN TEMP: 72; 6HR MAX TEMP: 77; BARNWELL FAIR 72 64 78 N5 29.99S AIKEN FAIR 72 63 73 N3 30.03F MANNING FAIR 72 66 83 N3 29.97S KINGSTREE NOT AVBL COLUMBIA CLOUDY 76 59 55 N3 29.99S 6HR MIN TEMP: 76; 6HR MAX TEMP: 82; SUMTER CLOUDY 72 63 72 N5 29.97F 6HR MIN TEMP: 72; 6HR MAX TEMP: 79; FLORENCE CLOUDY 74 62 66 N8 29.98S 6HR MIN TEMP: 73; 6HR MAX TEMP: 79; MYRTLE BEACH DRIZZLE 73 64 73 N12 29.93F N MYRTLE BEACH CLOUDY 73 66 78 NE12 29.93F 6HR MIN TEMP: 73; 6HR MAX TEMP: 76; $$ GAZ063-065-086>088-099>101-113>116-118-119-134-136>141-150-210100- ...GEORGIA... CITY SKY/WX TMP DP RH WIND PRES REMARKS SAVANNAH ARPT CLOUDY 73 65 75 N8 29.95S 6HR MIN TEMP: 73; 6HR MAX TEMP: 77; HUNTER AAF CLOUDY 72 66 80 N7 29.93S 6HR MIN TEMP: 72; 6HR MAX TEMP: 76; FORT STEWART CLOUDY 73 65 76 N7 29.95R 6HR MIN TEMP: 73; 6HR MAX TEMP: 78; STATESBORO NOT AVBL SYLVANIA CLOUDY 76 71 83 NE3 29.99S CLAXTON FAIR 73 70 88 CALM 29.98R THOMSON PTCLDY 72 69 90 CALM 30.06R AUGUSTA-BUSH MOCLDY 70 62 76 NE3 29.98S 6HR MIN TEMP: 69; 6HR MAX TEMP: 85; AUGUSTA-DANIEL MOCLDY 78 58 49 NE6 30.00S SWAINSBORO FAIR 75 68 78 CALM 30.00R VIDALIA PTCLDY 73 64 73 NE3 29.99R ALMA CLEAR 74 64 71 VRB3 29.97R 6HR MIN TEMP: 74; 6HR MAX TEMP: 84; WAYCROSS NOT AVBL JESUP MOCLDY 77 70 78 N5 29.97R BRUNSWICK CLOUDY 72 68 88 N3 29.95S SAINT SIMONS CLOUDY 72 68 87 N7 29.93S 6HR MIN TEMP: 71; 6HR MAX TEMP: 74; 6HR PCP: 0.12; $$ SCZ027-028-034-036>038-045-046-048>050-GAZ119-141-210100- ...LAKE AND SUPPLEMENTAL COASTAL OBSERVATIONS... STATION/POSITION TIME TEMP WIND PRES WAVE SWELL AIR SEA DIR/SP/G HT/PER HT/PER/DIR (UTC) (F) (DEG/KT/KT) (MB) (FT/S) (FT/S/D) UPR LAKE MARION NOT AVBL WINYAH BAY 0000 72 350/ 6 1013.0S LAKE MURRAY 0000 76 30/ 1/ 3 1015.2S ACE BASIN NERRS 0000 71 330/ 2 1014.0S FORT PULASKI 0000 74 360/ 10/ 12 1013.8F SAPELO ISLAND 0000 75 360/ 12 1014.0S $$ ANZ835-935-AMZ111-154-330-350-352-354-374-450-454-472-210100- ...C-MAN AND BUOY OBSERVATIONS... STATION/POSITION TIME TEMP WIND PRES WAVE SWELL AIR SEA DIR/SP/G HT/PER HT/PER/DIR (UTC) (F) (DEG/KT/KT) (MB) (FT/S) (FT/S/D) FOLLY BEACH CMAN 0000 73 360/ 12/ 15 1013.8F BUOY 41004 0000 75 82 30/ 27/ 33 1010.7F 8/ 8 3/ 8 BUOY 41008 0000 77 83 20/ 19/ 23 1012.4S 6/ 6 5E ST. MARYS GA 0000 83 N/A 6/ 6 2/ 60/11 FRYING PAN BUOY NOT AVBL BUOY 41025 0000 76 100/ 17/ 21 1014.1F 8/ 9 3/ 70/ 9 CAPE LOOKOUT NC 0000 71 40/ 16/ 17 1013.6F BUOY 41002 NOT AVBL BUOY 41010 0000 80 84 250/ 21/ 25 1010.2R 8/ 6 3/ 30/ 9 BUOY 41012 NOT AVBL ST AUGUSTINE FL 0000 79 360/ 20/ 24 1013.1R CAPERS NEARSHORE 2300 74 10/ 16/ 17 N/A FRIPP NEARSHORE NOT AVBL $$

USA.gov is the U.S. government's official web portal to all federal, state and local government web resources and services.